Temperature
12 12 13 13 13 13 13 13 13 14 15 16 16 16 16 16 17 17 16 16 16 16 16 16 16 16 17 17 17 16 16 16 16 16 16 16 16 16
12 12 12 12 12 12 13 13 13 13 14 15 15 16 16 16 16 16 16 16 16 16 16 16 16 16 17 17 17 17 17 16 16 16 16 16 16 16
11 11 12 12 12 12 12 12 13 13 13 14 15 15 15 16 16 16 16 16 16 16 16 16 16 16 16 16 17 17 16 16 16 16 16 16 16 16
11 11 11 11 11 11 12 12 12 12 13 13 14 14 15 15 15 15 15 15 15 15 15 16 16 16 16 16 16 16 16 16 16 16 16 16 16 16
10 10 11 11 11 11 11 11 12 12 12 12 13 13 14 14 15 14 14 15 15 15 15 15 15 16 16 16 16 16 16 16 16 16 16 16 16 16
10 10 10 10 11 11 11 11 11 11 12 12 12 12 13 13 14 14 14 14 14 14 14 14 15 15 15 16 16 16 16 16 16 16 16 16 16 16
9 10 10 10 10 10 10 11 11 11 11 11 12 12 12 12 13 13 13 13 13 14 14 14 14 14 15 15 15 15 15 15 15 15 16 16 16 16
8 9 9 10 10 10 10 10 10 11 11 11 11 12 12 12 12 12 13 13 12 13 13 13 13 13 14 14 14 14 15 15 15 15 15 15 15 15
8 8 9 9 9 10 10 10 10 10 10 11 11 11 12 12 12 12 12 13 13 14 13 13 12 13 13 13 13 14 14 14 14 14 14 15 15 15
8 8 8 9 9 9 10 10 10 10 10 10 11 11 11 11 12 12 12 12 12 12 12 12 12 12 12 13 13 13 13 13 13 14 14 14 14 14
7 8 8 8 9 9 9 9 10 10 10 10 10 10 11 11 11 11 11 11 11 11 11 12 12 12 12 12 12 12 12 12 12 13 13 13 13 13
7 7 8 8 8 8 9 9 9 10 10 10 10 10 10 10 11 11 11 11 11 11 11 11 12 11 11 11 11 11 12 12 12 12 12 12 12 12
7 7 7 8 8 8 9 9 9 9 10 10 10 10 10 10 10 11 11 11 11 11 12 12 12 11 11 11 11 11 11 11 11 11 11 11 11 11
7 7 7 8 8 8 8 9 9 9 9 9 9 10 10 10 10 10 11 11 11 12 12 12 12 12 12 12 11 11 10 10 11 11 11 11 11 11
7 7 7 7 8 8 8 9 9 9 9 9 9 10 10 10 10 10 10 10 11 11 11 12 12 12 12 12 12 11 11 10 10 10 10 10 10 10
7 7 7 7 8 8 8 8 9 9 9 9 9 10 10 10 10 10 10 10 10 10 10 11 11 11 11 11 12 12 11 11 10 10 10 10 10 10
6 7 7 7 7 8 8 8 9 9 9 9 9 9 9 10 10 10 10 10 10 10 10 10 10 10 11 11 11 11 11 11 10 10 9 9 9 9
6 7 7 7 8 8 8 8 9 9 9 9 9 9 9 10 10 10 10 10 10 10 10 10 10 10 10 10 10 10 10 10 10 9 9 9 9 9
6 7 7 7 8 8 8 8 9 9 9 9 9 9 9 9 9 9 10 10 10 10 10 10 10 10 10 10 10 10 10 10 10 9 9 9 9 9
7 7 7 7 8 8 8 8 9 9 9 9 9 9 9 9 9 9 9 9 10 10 10 10 10 10 11 11 10 10 10 10 10 9 9 9 9 8
7 7 7 8 8 8 8 8 9 9 9 9 9 9 9 9 9 9 9 9 9 9 9 10 10 10 10 10 10 10 9 9 10 10 9 9 8 8
7 7 8 8 8 8 8 9 9 9 9 9 9 9 9 9 9 9 9 9 9 9 9 10 9 9 9 9 10 10 9 9 9 9 9 9 9 9
7 8 8 8 8 8 8 9 9 9 9 9 9 9 9 9 9 9 9 9 9 9 9 9 9 9 9 9 9 9 9 9 9 8 8 9 9 9
Wind_Speed
6 6 4 4 4 3 3 3 2 2 3 2 0 1 2 5 10 11 10 12 11 10 8 7 8 9 11 13 15 17 18 18 19 19 21 22 23 24
6 6 5 4 4 4 4 3 3 3 3 2 1 1 2 4 8 9 10 12 10 9 8 7 6 7 7 9 10 12 13 15 16 16 17 18 20 21
8 8 8 6 5 5 4 4 4 4 4 3 1 1 2 5 6 7 9 8 7 8 7 6 5 5 5 6 7 9 10 11 13 14 15 16 17 18
9 9 9 7 7 6 5 6 5 5 4 4 3 2 2 6 7 7 6 7 7 8 8 7 6 5 4 4 4 5 7 8 10 11 12 13 14 14
10 10 10 8 8 6 6 6 5 5 4 4 3 3 2 5 6 5 6 5 6 8 8 8 8 7 6 4 4 4 5 6 7 8 8 9 9 10
10 10 10 10 10 9 7 7 6 5 4 4 4 4 4 5 6 6 5 3 4 5 6 7 8 9 8 7 5 4 4 5 5 6 7 8 8 7
9 9 10 12 13 11 8 8 7 6 5 5 5 4 5 6 6 5 6 5 3 3 4 3 4 5 6 7 6 5 6 6 6 7 7 7 8 7
9 8 9 11 13 15 15 14 12 9 8 6 5 6 7 7 6 7 7 6 4 4 4 3 2 3 3 5 6 6 7 7 8 8 8 9 9 9
9 8 9 10 10 8 12 15 15 15 14 9 7 7 7 8 9 9 8 6 4 8 5 3 2 3 3 6 7 7 8 8 9 10 10 11 12 12
10 9 9 8 9 8 8 8 9 10 12 9 8 7 7 8 10 9 8 5 4 5 5 4 3 2 3 5 7 7 8 10 11 12 13 14 15 15
10 9 9 10 12 12 9 8 8 7 10 12 11 10 10 11 10 8 9 9 5 4 3 4 4 3 2 2 5 7 8 10 12 13 14 16 17 17
7 8 12 12 13 14 10 9 9 7 7 8 8 8 7 9 13 11 11 10 6 5 5 5 5 4 3 1 1 3 5 8 10 12 13 14 14 13
6 6 8 14 15 16 13 10 11 9 7 8 7 6 5 6 8 9 9 9 8 4 8 6 5 4 4 4 2 1 2 3 5 6 8 10 10 11
6 6 7 13 14 14 11 11 12 10 6 6 5 5 5 6 7 9 9 8 7 6 11 9 5 7 6 5 4 3 2 3 3 2 5 8 9 9
5 7 7 10 11 9 11 12 10 6 5 5 6 6 5 6 6 6 6 6 5 7 13 7 8 9 6 6 6 5 4 3 3 3 3 3 4 5
3 4 5 6 5 6 7 7 6 7 6 6 6 5 4 5 6 5 6 7 6 4 5 9 10 12 6 6 7 6 5 6 5 4 4 3 4 7
4 3 3 3 4 3 4 5 5 5 5 4 5 4 4 5 5 5 6 6 6 7 6 5 6 6 7 8 7 7 6 5 6 5 5 3 2 5
5 3 4 4 5 5 6 5 5 6 6 5 5 5 5 5 5 5 6 7 8 8 8 7 8 6 4 2 5 8 7 6 6 6 4 4 3 3
3 4 4 5 5 5 6 6 6 6 6 6 6 5 5 5 6 6 7 7 7 8 8 9 9 8 8 6 5 8 8 7 7 6 5 4 5 5
3 4 4 5 5 5 5 5 5 6 6 6 6 6 6 6 6 7 8 8 8 7 8 8 9 9 8 8 6 5 11 9 7 7 5 3 2 3
3 4 4 5 5 5 6 6 6 6 6 7 7 7 7 7 7 7 8 10 9 8 11 11 9 9 7 7 6 4 4 12 13 7 7 5 3 3
3 4 4 5 5 5 6 6 6 6 7 7 7 7 8 8 8 9 9 9 8 8 8 8 9 8 6 7 8 7 6 5 7 12 13 11 7 7
4 3 4 4 4 4 5 6 7 6 7 7 7 7 8 8 7 8 9 9 8 9 10 9 8 6 5 7 7 6 7 7 5 4 3 5 11 13
Wind_Direction
232 228 223 221 207 206 207 199 212 238 248 253 32 113 139 144 154 148 145 157 160 165 175 189 206 217 221 223 224 225 225 226 227 227 226 225 225 226
228 228 229 225 214 202 204 205 204 212 233 231 209 156 146 143 145 139 140 143 147 154 160 171 186 198 209 216 219 219 220 221 223 224 225 226 226 227
230 225 230 221 212 208 202 202 208 208 224 236 183 134 121 133 128 124 126 125 131 140 144 149 158 169 186 198 206 212 215 217 220 223 225 227 228 228
232 225 228 224 216 210 203 201 205 204 209 215 193 168 151 152 140 137 132 126 122 126 126 126 126 132 148 167 185 198 208 214 217 220 222 224 225 227
229 222 222 214 216 211 208 206 205 208 203 198 198 187 162 150 135 130 124 117 121 121 111 105 104 102 103 113 137 165 184 196 204 208 209 211 212 214
230 223 218 209 209 206 208 209 203 201 201 195 192 184 167 152 143 144 141 133 133 123 109 102 96 88 81 82 96 116 137 153 164 173 180 183 184 186
236 228 223 219 214 206 205 199 196 196 197 198 193 181 174 164 167 159 157 143 126 135 121 99 83 70 61 59 72 90 111 125 136 143 149 153 154 154
236 233 231 230 226 217 213 200 190 189 195 197 196 191 189 177 167 165 159 160 168 162 133 116 88 77 52 50 65 85 100 112 123 129 133 133 132 130
230 229 236 232 219 216 218 212 204 199 190 185 190 195 184 178 170 173 177 170 165 161 138 126 101 82 55 58 71 88 101 108 115 120 122 122 119 117
228 221 219 226 222 209 209 207 203 205 199 190 192 198 190 178 177 176 168 145 112 142 137 131 126 97 67 53 64 86 101 109 112 114 116 115 113 109
230 222 215 219 221 208 196 198 203 212 209 200 197 202 199 183 170 160 161 162 155 163 151 129 132 114 86 53 58 84 101 109 113 115 117 116 112 104
228 223 220 216 216 204 194 191 202 208 190 189 199 211 205 193 182 178 174 173 157 161 165 134 139 136 123 88 64 81 99 106 115 118 121 121 117 107
221 219 220 215 211 203 193 191 203 193 181 176 178 182 182 187 191 187 180 177 172 170 165 145 144 140 132 135 143 153 138 127 123 122 125 124 125 123
216 216 214 207 203 198 195 196 195 184 168 167 170 177 184 192 194 190 187 186 178 168 165 155 145 154 139 137 157 159 158 160 144 133 138 128 117 116
212 209 207 200 192 191 195 190 183 172 165 167 178 187 193 192 180 177 174 166 149 155 163 161 147 149 142 145 151 152 155 177 171 150 147 143 140 136
207 196 181 169 160 163 171 178 175 176 172 176 183 187 176 171 175 173 170 163 152 144 157 162 155 154 145 141 150 156 157 165 171 170 151 144 155 166
164 140 132 145 162 161 158 167 174 171 174 169 170 171 175 175 174 168 160 158 161 161 157 146 141 139 137 146 151 158 154 152 160 159 149 151 177 180
160 158 168 175 180 180 178 180 181 183 182 177 175 175 177 177 172 166 164 164 164 165 163 155 142 125 103 74 153 160 162 157 155 155 146 149 185 204
167 177 181 187 190 186 184 183 187 190 180 177 180 181 178 175 170 172 171 168 167 165 165 161 161 158 162 167 184 176 165 159 153 155 162 157 179 196
202 195 198 197 195 192 192 191 190 183 180 183 182 182 180 176 174 176 175 171 167 164 165 168 176 176 174 165 158 171 172 160 159 163 163 135 104 108
219 215 211 205 200 196 198 197 191 187 184 182 184 183 182 178 179 180 177 173 167 170 177 182 178 151 120 117 123 131 159 173 166 160 154 136 125 127
225 218 215 207 202 200 198 195 192 190 187 188 187 185 183 180 179 177 177 176 177 175 172 160 149 147 146 156 156 150 144 145 157 164 165 163 159 177
228 222 214 206 201 194 189 190 190 191 190 188 185 183 180 178 177 174 175 174 172 168 158 155 156 155 153 154 151 144 144 145 141 139 164 201 203 204
Height
1467 1467 1467 1467 1468 1468 1470 1472 1474 1473 1474 1476 1479 1481 1484 1487 1491 1493 1496 1499 1501 1503 1505 1507 1509 1512 1514 1516 1519 1522 1525 1528 1531 1534 1537 1540 1543 1545
1462 1462 1462 1463 1463 1464 1465 1467 1469 1471 1471 1473 1476 1478 1481 1484 1487 1490 1493 1496 1498 1499 1501 1503 1505 1507 1510 1512 1514 1516 1519 1522 1525 1528 1531 1534 1537 1540
1456 1456 1457 1458 1458 1459 1460 1461 1464 1466 1468 1470 1472 1475 1477 1480 1484 1487 1490 1492 1495 1496 1498 1500 1502 1504 1506 1507 1510 1512 1515 1517 1520 1523 1526 1528 1531 1534
1449 1450 1451 1453 1453 1454 1455 1456 1458 1461 1463 1465 1468 1471 1474 1477 1480 1484 1487 1489 1492 1494 1495 1497 1499 1500 1502 1504 1506 1508 1511 1513 1515 1518 1521 1523 1526 1528
1441 1442 1444 1446 1447 1449 1450 1451 1453 1455 1458 1460 1463 1466 1470 1473 1476 1480 1484 1486 1489 1491 1493 1494 1496 1497 1499 1500 1502 1504 1507 1509 1511 1513 1516 1518 1521 1523
1433 1435 1437 1439 1441 1443 1445 1447 1448 1450 1452 1455 1458 1461 1465 1468 1472 1476 1480 1483 1486 1488 1490 1492 1493 1494 1496 1498 1499 1501 1503 1505 1507 1509 1511 1513 1516 1518
1424 1426 1429 1432 1434 1437 1439 1441 1444 1445 1447 1449 1452 1456 1459 1463 1467 1472 1476 1479 1482 1485 1488 1489 1491 1492 1494 1495 1497 1499 1500 1502 1504 1505 1507 1510 1512 1514
1417 1419 1421 1424 1427 1430 1433 1436 1439 1441 1443 1444 1447 1450 1453 1458 1462 1467 1471 1475 1478 1482 1485 1487 1489 1490 1492 1493 1495 1496 1498 1499 1501 1503 1504 1507 1509 1511
1409 1411 1414 1416 1420 1423 1427 1430 1433 1436 1438 1441 1442 1445 1449 1452 1457 1462 1466 1470 1473 1477 1481 1484 1486 1488 1490 1492 1493 1495 1496 1498 1499 1501 1502 1504 1506 1508
1401 1403 1406 1409 1413 1417 1420 1424 1427 1430 1433 1436 1439 1442 1445 1449 1452 1457 1461 1467 1471 1474 1478 1481 1483 1486 1488 1490 1492 1493 1495 1496 1498 1499 1501 1503 1505 1506
1394 1396 1399 1402 1406 1410 1414 1417 1421 1425 1429 1432 1435 1438 1440 1444 1448 1452 1456 1462 1465 1470 1474 1477 1480 1483 1486 1489 1491 1492 1494 1495 1497 1499 1500 1502 1504 1505
1387 1390 1393 1395 1399 1404 1408 1412 1416 1420 1424 1427 1430 1433 1436 1439 1443 1447 1451 1456 1460 1465 1469 1473 1476 1480 1484 1487 1489 1491 1493 1495 1496 1498 1500 1502 1503 1505
1382 1384 1387 1390 1394 1398 1402 1407 1411 1416 1419 1423 1426 1429 1432 1435 1438 1442 1447 1452 1456 1460 1463 1468 1472 1476 1480 1483 1487 1490 1492 1494 1496 1498 1500 1502 1503 1505
1377 1379 1382 1385 1389 1393 1397 1402 1407 1411 1415 1419 1422 1425 1428 1431 1435 1439 1443 1447 1452 1456 1460 1464 1468 1472 1476 1480 1484 1487 1490 1493 1495 1498 1500 1501 1503 1504
1373 1375 1378 1381 1385 1389 1393 1398 1403 1407 1411 1414 1418 1421 1424 1428 1431 1435 1439 1443 1448 1452 1457 1461 1466 1470 1474 1477 1481 1484 1487 1490 1493 1496 1499 1501 1503 1505
1370 1373 1375 1378 1382 1386 1390 1395 1399 1403 1407 1411 1414 1418 1421 1424 1428 1431 1435 1439 1443 1448 1453 1458 1463 1467 1471 1475 1479 1482 1485 1488 1491 1495 1498 1500 1502 1505
1369 1371 1373 1376 1379 1383 1387 1392 1396 1400 1404 1407 1411 1414 1418 1421 1424 1428 1431 1435 1439 1443 1448 1454 1459 1464 1469 1473 1476 1480 1483 1486 1490 1493 1496 1498 1501 1504
1367 1369 1372 1375 1378 1381 1385 1389 1393 1397 1401 1404 1408 1411 1414 1417 1421 1424 1428 1431 1436 1440 1445 1450 1455 1460 1465 1470 1474 1477 1481 1484 1488 1492 1495 1497 1500 1503
1367 1369 1371 1373 1376 1379 1383 1386 1390 1394 1398 1401 1404 1407 1411 1414 1417 1421 1424 1428 1432 1437 1441 1446 1451 1455 1460 1464 1469 1475 1478 1482 1486 1490 1493 1497 1500 1503
1366 1368 1370 1372 1375 1378 1380 1384 1387 1391 1394 1397 1401 1404 1407 1410 1413 1417 1420 1424 1429 1433 1438 1442 1447 1452 1456 1460 1465 1470 1476 1480 1483 1487 1491 1496 1499 1503
1366 1367 1369 1371 1373 1375 1378 1381 1384 1387 1390 1393 1396 1400 1403 1406 1409 1413 1417 1421 1425 1430 1434 1439 1444 1451 1455 1460 1465 1468 1473 1479 1483 1486 1490 1494 1497 1500
1365 1366 1368 1369 1371 1373 1375 1378 1380 1383 1386 1389 1392 1395 1398 1402 1405 1409 1413 1418 1422 1426 1431 1436 1442 1447 1452 1457 1461 1466 1471 1476 1482 1486 1491 1494 1496 1499
1364 1365 1366 1367 1369 1370 1372 1374 1376 1379 1381 1384 1387 1390 1394 1397 1401 1405 1410 1414 1418 1423 1428 1433 1439 1444 1450 1455 1459 1464 1469 1474 1479 1484 1488 1493 1496 1500